PROFILE

 METAR AND TAF INFORMATION
ADDS - METARS form results

(0133 UTC 20 February 2020)
http://aviationweather.gov/metar/data/
 
LIPH 200120Z AUTO VRB01KT 9999 NCD 03/01 Q1023
LIPH 200050Z AUTO VRB02KT 9999 NCD 03/01 Q1023
TAF LIPH 192300Z 2000/2024 01005KT CAVOK 

 AIRPORT MAP

 RUNWAY INFORMATION
Runway 07 Runway length 7941 ft Runway width 144 ft
Runway elevation 56 ft Runway displaced threshold 254 ft Runway heading 69
Runway 25 Runway length 7941 ft Runway width 144 ft
Runway elevation 51 ft Runway displaced threshold 389 ft Runway heading 249

 AIRPORT FREQUENCIES
Type APP Name APP Frequency 36.23 MHZ
Type APP Name APP Frequency 120.4 MHZ
Type GND Name GND Frequency 27.917 MHZ
Type INFO Name PADOVA INF Frequency 124.15 MHZ
Type TWR Name TWR Frequency 118.7 MHZ

 AIRPORT NEAR NAVIGATION AIDS
Type NDB Name Treviso Frequency 302 KHZ